Dewpoint
20 20 19 19 19 18 18 16 16 17 14 12 11 11 7 5 5 7 7 7 7 6 7 9 11 16 52 55 57 60 60 60 59 58 58 59 59 59 60 60 60 60 60 62 63 63 63 63 63 63 63 63 63 63 63 63 63 63 64 64 64 65 66 65 65 65 65 64 64 64 64 64 64 65 65 64 64 64 65 64 64 64 64 63 63 63
20 20 20 19 19 17 17 18 19 17 14 10 9 10 9 5 4 5 5 6 7 10 8 11 11 33 52 55 57 59 59 58 58 58 58 59 59 59 59 59 60 60 62 62 62 63 63 63 63 63 63 64 63 63 63 62 63 63 64 64 64 65 65 65 65 65 64 64 64 64 64 64 64 64 64 63 64 64 63 63 62 62 62 62 61 62
19 19 20 19 19 16 16 17 17 17 16 11 9 9 9 7 7 7 8 8 7 6 11 12 13 36 51 55 57 58 58 58 59 58 58 58 59 59 59 59 60 60 60 62 62 62 63 63 63 63 63 63 63 62 62 62 63 64 64 64 65 65 65 64 64 64 63 63 64 64 64 64 64 65 64 64 63 62 61 61 60 60 60 60 60 60
18 18 20 20 20 15 16 16 16 16 20 16 11 10 9 9 6 6 8 7 8 10 22 33 21 46 51 54 56 57 58 58 59 59 58 59 59 59 59 59 59 60 60 60 61 61 62 63 63 63 63 63 63 62 62 63 64 64 64 64 64 64 64 64 64 64 63 64 65 65 65 64 64 62 63 62 61 60 59 58 58 58 58 58 58 58
18 18 20 20 20 16 15 15 15 16 15 20 13 13 11 8 6 7 7 12 32 43 39 42 46 48 51 52 54 56 58 58 59 59 58 59 59 60 60 60 60 60 60 60 61 61 62 62 62 62 63 63 63 63 63 64 64 64 64 64 64 64 64 64 65 64 65 65 64 64 64 64 63 62 61 60 59 59 59 57 56 57 57 57 57 57
19 19 20 19 20 17 15 14 15 15 14 16 15 11 9 9 6 9 10 9 16 32 41 35 31 39 50 51 52 55 56 56 58 58 57 58 59 60 59 60 60 60 61 61 61 61 62 62 62 62 63 63 63 63 63 64 64 65 65 64 64 64 64 64 64 64 64 64 63 62 61 61 61 60 60 58 57 57 56 55 56 56 56 56 56 56
20 21 20 19 19 19 13 14 14 14 13 15 15 11 10 10 9 8 8 6 7 11 29 33 14 26 47 49 52 54 54 54 57 57 57 58 58 59 59 59 60 60 60 61 61 61 62 62 62 62 62 62 63 63 64 65 65 65 65 64 64 64 63 64 63 64 64 63 63 62 61 61 60 59 59 58 57 55 55 55 55 55 55 55 55 55
19 19 17 20 19 19 15 12 13 13 13 13 14 10 9 9 9 9 9 9 10 17 21 29 27 35 40 48 52 54 53 53 54 55 56 57 58 58 59 59 60 60 60 60 61 61 61 62 62 62 62 62 63 64 64 65 65 65 64 64 63 63 63 63 63 63 63 62 62 62 62 61 60 59 57 56 55 55 55 54 54 54 54 54 55 54
20 18 18 17 20 18 18 16 11 14 12 12 12 10 9 9 8 9 8 11 12 13 22 30 36 29 36 42 51 53 51 52 53 54 55 56 57 58 59 59 59 60 60 60 60 61 61 61 62 62 62 63 63 64 64 64 64 64 64 64 63 63 63 63 63 63 63 63 62 62 62 61 60 58 57 56 55 54 54 53 53 53 52 52 53 53
18 18 18 16 19 18 19 11 11 13 11 8 11 11 12 10 10 9 11 10 11 8 7 19 28 16 25 38 47 49 51 50 52 53 54 55 57 58 58 59 59 59 60 60 61 61 61 62 62 62 63 63 63 64 64 64 64 64 64 63 63 63 63 63 63 63 62 62 63 62 62 60 59 58 56 56 55 53 53 52 52 52 51 51 51 52
17 24 24 16 17 19 19 13 9 11 11 11 10 8 9 14 13 25 16 15 10 4 9 11 26 18 22 38 45 45 47 51 51 52 54 55 56 57 58 58 59 59 60 60 61 61 61 62 62 62 62 63 63 63 64 63 64 64 63 62 62 62 63 63 63 62 62 62 62 62 61 59 57 57 55 54 53 52 52 52 51 51 51 51 50 51
15 14 20 17 23 18 19 11 8 10 9 10 8 9 7 11 12 12 12 17 3 5 8 14 27 20 14 26 44 48 49 50 51 51 53 54 55 56 57 58 59 59 60 61 61 61 61 62 62 62 62 62 63 63 63 63 63 63 62 62 62 62 63 63 63 62 62 62 62 62 61 59 58 56 54 53 52 52 52 51 51 50 50 49 49 49
14 14 14 13 27 16 16 15 8 8 7 7 9 9 8 7 6 3 5 2 6 6 10 18 28 23 19 28 42 47 48 49 51 52 52 53 54 56 57 58 59 60 61 61 61 61 61 61 61 61 61 62 62 62 62 62 62 62 62 62 61 61 62 63 62 62 62 62 62 62 61 59 58 56 54 53 52 51 51 51 49 48 48 48 48 48
16 15 12 12 18 21 15 14 8 5 6 6 7 9 8 5 4 2 5 7 9 12 13 27 26 18 26 29 39 45 47 49 49 51 52 53 54 56 57 58 59 60 61 61 61 61 60 61 61 61 61 62 62 62 62 62 62 62 62 62 61 61 62 62 62 61 61 62 62 62 60 59 58 56 53 52 51 51 50 50 49 48 47 47 47 47
11 12 14 11 11 15 16 15 12 12 6 5 7 6 9 6 5 3 6 4 6 9 14 20 11 11 13 19 38 45 46 48 49 50 52 54 55 56 58 58 59 60 60 61 60 60 60 61 61 61 61 61 62 62 61 61 61 61 61 61 61 61 61 61 61 60 60 60 60 60 59 57 56 55 52 52 52 51 50 49 48 48 48 47 47 47
12 15 18 13 14 14 14 17 13 10 8 7 8 8 8 7 18 8 14 11 12 8 13 18 13 19 15 36 44 45 47 50 51 52 54 55 56 57 58 58 59 59 60 60 60 60 60 61 61 61 61 61 61 61 61 61 60 60 60 60 60 59 59 59 59 58 58 57 57 57 56 56 56 54 53 52 52 51 50 49 48 47 47 47 47 47
13 15 15 13 14 12 12 13 13 12 12 11 6 6 6 14 18 8 8 20 13 7 4 14 21 30 35 34 36 43 46 49 52 53 54 55 56 57 57 58 58 59 59 60 60 60 60 61 61 61 61 60 60 60 60 59 60 59 58 58 57 57 57 57 56 56 56 56 56 55 55 55 54 52 51 51 51 50 49 48 47 47 46 46 46 46
13 16 18 12 11 12 11 12 11 12 14 6 6 7 15 18 15 10 4 11 9 8 10 17 18 28 23 24 39 43 46 49 51 53 53 54 56 56 57 58 58 59 59 60 60 60 60 61 61 61 60 60 59 59 59 58 58 58 57 56 56 55 55 55 55 55 55 55 54 54 54 53 53 52 51 51 50 49 48 48 47 46 45 45 45 46
18 10 13 13 12 12 12 11 8 8 9 7 7 11 5 7 6 15 13 4 5 3 3 12 21 26 21 22 42 43 44 48 50 52 54 55 56 56 57 58 58 59 59 59 59 60 60 60 60 60 59 59 58 58 57 57 56 56 56 55 55 55 55 54 54 54 54 54 54 54 53 52 52 51 51 51 50 48 47 45 45 44 44 45 45 45
23 14 16 15 11 12 8 8 10 7 7 9 8 5 13 13 13 10 13 15 13 5 5 9 23 21 29 27 42 42 45 47 49 52 53 55 56 56 57 57 58 58 59 59 59 60 60 60 60 59 58 58 57 56 56 55 55 55 54 54 54 54 54 54 54 54 53 53 53 53 53 52 52 51 51 50 49 47 45 44 43 43 43 44 44 43
15 21 10 16 11 11 9 9 9 8 7 5 6 6 9 13 16 13 19 7 8 8 7 11 14 21 27 32 42 43 45 47 49 51 52 54 55 56 57 57 58 58 58 59 59 59 60 59 59 58 57 57 56 55 55 54 54 54 54 53 53 53 53 53 53 53 53 53 52 52 52 52 52 52 51 49 46 44 43 43 43 42 43 42 42 42
14 18 14 22 10 10 11 10 8 8 6 6 9 10 6 9 9 4 11 13 16 7 5 12 11 22 28 41 41 43 45 48 50 50 51 53 55 56 57 57 58 58 58 59 59 59 59 59 58 57 56 56 55 55 54 54 54 53 53 53 53 53 52 52 52 52 52 52 52 52 52 51 52 51 49 45 44 43 42 41 41 42 41 41 41 41
21 24 19 13 15 12 12 10 9 8 7 7 6 7 8 15 13 7 4 10 10 11 21 22 14 19 30 38 42 44 46 48 50 50 51 53 54 56 57 57 58 58 58 58 59 59 59 58 57 56 55 55 54 54 53 53 53 53 52 52 52 52 51 52 51 52 52 52 52 52 51 51 50 48 45 43 42 41 41 41 41 41 40 40 40 41
27 16 16 17 18 15 10 10 10 9 7 6 7 11 8 10 15 11 15 19 10 15 13 11 11 19 28 41 43 45 47 48 48 49 49 53 55 56 57 57 58 58 58 58 59 59 58 57 56 55 54 54 54 53 53 53 52 52 51 51 51 51 51 51 51 51 51 51 51 50 50 49 47 45 44 42 41 40 40 40 40 40 39 39 40 39
14 21 16 15 8 8 11 10 8 9 7 10 9 14 7 8 13 24 20 18 7 15 15 14 9 16 31 43 45 47 48 48 49 49 52 54 55 56 57 57 58 58 58 58 58 58 57 56 55 55 54 54 53 53 53 52 51 51 51 51 51 50 50 50 50 50 50 50 49 49 48 46 45 43 42 41 40 40 39 39 39 39 38 38 39 39
17 24 18 12 7 6 6 6 8 8 7 12 15 8 8 6 16 16 8 14 9 18 16 12 12 18 28 42 45 46 47 48 49 50 52 54 55 56 57 57 57 57 57 57 57 57 56 55 55 54 54 53 53 52 52 51 51 51 51 50 50 50 50 49 49 49 49 49 48 47 46 45 43 42 40 40 39 39 38 38 38 38 39 38 38 38
28 31 23 22 18 14 12 13 15 17 11 7 11 8 9 11 13 16 21 15 13 17 16 18 18 20 31 43 44 46 47 48 49 51 52 54 55 57 57 57 57 57 57 57 56 56 56 55 55 54 54 53 52 52 52 51 50 50 50 50 50 50 49 49 49 48 48 48 47 46 45 44 42 41 40 39 38 38 37 37 37 37 37 38 38 38
31 24 26 26 23 21 17 18 14 12 9 10 11 11 12 17 18 18 15 15 22 17 11 24 28 25 28 40 44 45 46 48 49 50 52 54 55 56 56 57 55 57 57 57 56 55 55 55 54 54 53 53 52 51 51 51 50 50 50 49 49 49 48 48 48 48 47 47 46 45 45 44 41 40 39 38 38 37 37 37 37 37 38 38 37 37
25 19 27 26 26 25 22 16 17 10 7 12 12 14 14 19 18 16 15 23 20 12 16 23 30 30 32 39 45 46 47 48 49 51 52 54 56 56 56 56 56 56 56 56 56 55 54 54 54 53 53 52 52 51 50 50 50 50 49 49 49 49 48 48 47 47 47 46 45 44 43 42 41 41 40 38 37 37 37 37 37 37 37 38 38 39
27 24 25 26 25 26 29 23 21 12 14 10 13 12 14 20 19 18 19 25 20 17 21 27 33 33 33 37 43 44 46 47 48 51 53 55 55 56 56 56 56 56 56 56 56 55 55 54 54 53 52 52 51 51 50 50 49 49 49 49 48 48 47 47 47 46 46 45 44 44 43 42 41 39 38 37 37 37 37 37 37 36 36 36 36 36
24 24 33 28 21 24 26 30 27 19 15 13 13 12 16 17 18 22 26 27 32 29 32 33 33 33 37 40 45 47 50 50 51 52 53 54 55 56 56 55 55 55 56 56 56 55 55 54 53 53 52 51 51 50 50 49 49 49 49 48 48 47 47 47 46 46 45 44 44 43 43 41 40 39 38 38 38 37 37 36 36 35 35 35 35 36
28 26 29 25 18 21 23 26 20 19 15 13 15 17 19 18 16 22 22 28 27 24 33 34 32 33 37 44 48 49 50 50 50 51 53 54 55 56 55 55 55 55 55 56 56 55 54 53 53 52 52 51 51 50 50 49 49 49 48 48 47 47 47 46 46 45 44 44 44 43 42 41 40 39 39 38 37 36 35 35 34 34 34 35 35 36
30 26 21 20 19 16 24 27 20 18 13 10 11 17 21 20 21 25 23 30 30 34 33 27 28 34 40 48 49 49 49 49 50 51 52 53 55 55 55 55 55 55 55 55 55 55 55 54 53 52 52 51 50 50 49 49 49 48 48 48 47 47 46 46 45 45 45 44 43 42 42 41 40 40 40 39 37 36 35 35 35 35 34 34 35 34
33 27 22 25 16 18 24 26 21 12 4 9 22 27 24 19 22 19 20 25 27 36 34 32 28 36 46 47 48 48 49 50 51 52 54 54 54 55 55 56 55 55 55 55 55 55 55 54 53 52 51 51 50 50 49 49 49 49 49 48 47 46 46 45 45 45 44 43 43 42 42 41 41 40 39 39 38 37 37 36 35 34 35 35 35 33
29 26 22 24 17 19 22 21 14 6 10 23 30 33 33 34 26 23 23 28 27 33 34 37 42 45 47 46 46 48 48 49 50 52 53 55 55 55 55 55 55 55 55 55 55 55 55 54 53 52 51 51 50 50 49 49 50 49 49 47 46 46 46 46 46 44 43 43 42 42 42 41 40 40 39 36 35 35 34 36 35 34 34 33 33 33
28 24 23 20 20 19 19 15 6 8 23 29 30 33 37 33 30 25 20 22 28 33 35 35 39 44 46 46 47 48 50 51 51 50 52 54 56 55 55 55 55 55 55 55 55 55 54 54 53 52 51 51 50 49 49 48 48 48 48 48 46 46 46 46 45 44 43 43 43 42 42 41 41 41 39 38 36 35 35 35 34 33 34 34 33 34
36 29 23 21 23 17 15 16 17 25 25 25 27 31 29 23 23 22 16 17 26 30 35 35 40 44 46 47 50 50 51 51 50 50 52 54 55 55 56 55 56 56 56 55 55 55 54 54 53 52 51 50 49 49 48 48 48 47 47 47 46 46 46 45 44 43 43 43 43 43 43 42 41 41 39 37 36 35 35 35 35 35 35 33 33 33
34 26 27 21 19 22 20 18 19 20 16 24 28 33 33 35 33 30 21 19 28 30 35 39 44 45 47 49 50 50 51 50 48 50 52 53 55 54 54 54 55 55 55 55 55 55 54 53 53 52 50 49 49 49 48 48 47 47 46 46 46 46 45 44 43 43 44 43 43 43 43 42 41 40 39 37 35 36 34 33 34 34 35 32 32 32
33 30 28 23 18 17 19 18 16 14 17 26 28 31 34 35 36 32 19 15 25 29 34 40 45 46 48 50 50 50 48 45 47 50 53 53 54 54 54 54 55 55 55 55 55 54 53 53 52 51 50 49 48 48 48 48 47 47 46 46 46 46 45 44 44 43 43 43 43 43 43 43 42 40 39 38 38 35 34 34 34 36 36 34 33 33
29 25 23 23 18 17 16 16 16 16 20 27 31 33 35 37 34 18 10 16 28 31 34 41 46 46 48 50 50 49 47 41 45 48 53 53 54 54 54 54 54 54 54 54 54 54 53 52 51 50 49 48 48 48 48 48 47 46 46 45 46 45 45 44 44 43 43 43 43 43 43 42 42 41 39 38 37 37 35 36 37 36 35 35 35 35
23 24 23 19 17 17 16 15 15 19 27 32 33 37 39 36 26 19 13 23 29 33 36 41 45 47 49 50 50 48 48 45 46 49 54 53 53 53 53 54 54 54 54 54 54 51 53 51 51 50 49 48 48 47 48 48 47 46 46 45 45 45 45 45 44 44 44 43 43 42 42 42 42 41 40 39 38 38 38 37 37 36 36 36 36 36
21 20 18 17 15 13 15 17 19 22 28 33 37 39 39 24 15 13 26 30 35 38 39 41 45 47 49 51 51 49 46 44 49 52 53 54 54 54 53 53 53 52 52 53 51 52 52 51 50 49 49 48 47 47 47 47 47 47 46 45 45 45 45 44 44 44 42 42 42 42 43 42 42 42 42 41 40 39 38 38 37 36 36 36 36 36
23 18 17 15 15 14 13 14 15 18 24 39 40 34 34 27 26 29 32 37 38 39 40 40 46 47 49 50 49 43 44 46 48 51 53 53 53 53 52 53 53 52 52 51 51 52 52 51 50 49 48 48 47 47 47 47 47 46 46 46 46 46 44 43 43 43 42 42 42 43 42 42 42 42 42 41 40 39 38 38 37 37 37 36 36 36
26 17 17 17 19 13 13 14 17 25 33 38 36 30 38 34 35 34 39 39 41 41 40 39 42 47 49 50 50 46 44 46 47 48 51 51 51 51 51 52 52 52 51 52 52 51 51 50 49 48 48 48 47 47 47 47 47 46 46 46 46 45 44 43 43 42 42 42 42 42 41 41 42 41 41 40 40 39 38 37 37 37 37 36 36 35
28 22 24 18 21 18 17 21 26 30 36 39 40 38 37 41 41 39 40 41 42 42 41 39 41 44 48 48 48 46 45 45 46 49 51 51 51 51 52 52 52 52 52 51 51 50 50 49 48 48 47 47 47 47 47 47 47 46 46 46 45 44 43 43 43 42 41 41 42 42 42 42 41 40 40 40 39 38 38 37 37 36 36 36 35 35
35 35 32 34 32 34 34 32 38 39 40 41 42 42 42 43 43 41 42 43 43 43 42 41 41 41 45 47 48 45 45 45 46 48 48 49 50 50 50 50 50 50 51 51 50 50 50 49 48 48 47 47 47 47 47 47 47 45 45 45 44 43 42 43 42 42 41 41 42 42 42 41 40 40 40 40 40 39 38 37 37 36 35 35 35 34
34 35 33 33 32 33 29 36 37 39 40 41 42 43 42 43 42 43 43 43 44 44 44 44 43 43 45 47 48 45 44 45 46 46 47 49 50 50 50 50 49 50 50 50 50 49 49 48 48 47 47 47 47 47 47 47 47 47 46 44 43 43 42 42 42 42 41 41 41 40 40 39 39 40 39 40 39 39 38 37 37 36 35 35 34 34
31 35 32 32 30 30 30 35 37 38 40 41 41 42 42 43 43 43 43 44 44 44 44 45 45 45 45 46 45 46 46 46 47 47 48 49 49 50 50 49 48 48 48 49 49 49 49 48 47 47 47 46 46 47 46 46 46 45 45 43 43 42 42 43 43 43 42 41 41 41 39 39 37 38 39 38 38 38 37 37 36 36 35 34 34 34
34 36 28 32 31 33 36 38 39 39 39 39 41 41 42 43 43 43 44 44 44 45 45 46 44 45 46 46 46 47 47 47 47 47 48 48 48 49 50 50 49 49 48 48 48 49 48 48 47 47 47 46 46 46 46 46 45 45 44 43 42 42 42 43 42 42 42 41 40 41 40 39 38 38 38 38 38 38 37 36 36 36 36 36 36 35
34 32 35 32 29 30 35 38 38 34 33 38 41 42 43 43 42 42 42 43 43 44 44 46 45 45 45 44 46 46 46 46 45 47 47 47 47 47 47 48 48 48 48 48 48 48 48 47 47 46 46 46 46 46 46 45 44 43 44 43 42 42 42 42 42 43 41 41 41 40 40 38 38 38 38 37 37 37 36 34 36 36 35 35 37 36
34 35 33 28 30 29 34 37 37 37 35 38 40 42 41 42 42 43 43 42 43 43 43 45 46 45 45 44 45 46 46 46 45 46 46 46 46 46 47 48 48 48 47 47 47 47 47 47 46 46 46 46 46 46 45 44 42 42 42 41 41 41 41 41 41 41 40 39 38 38 38 38 37 37 37 37 37 36 36 35 34 34 35 36 37 36